Albany, NY

11:40 PM EDT on September 20, 2017 (GMT -0400)
Albany International

Weather History for KALB - July, 2012

Change the Weather History Date:

Sunday, July 15, 2012

  Actual Average Record
Temperature  
Mean Temperature 76 °F 72 °F  
Max Temperature 83 °F 83 °F 96 °F (1997)
Min Temperature 69 °F 62 °F 44 °F (1950)
Degree Days  
Heating Degree Days 0 0  
Month to date heating degree days 0 0  
Since 1 June heating degree days 47 52  
Since 1 July heating degree days 0 0  
Cooling Degree Days 11 7  
Month to date cooling degree days 159 102  
Year to date cooling degree days 370 250  
Since 1 June cooling degree days 292 220  
Growing Degree Days 26 (Base 50)    
Moisture  
Dew Point 69 °F    
Average Humidity 79    
Maximum Humidity 100    
Minimum Humidity 58    
Precipitation  
Precipitation 1.07 in 0.14 in 3.23 in (2000)
Month to date precipitation 2.07 1.98  
Year to date precipitation 18.02 20.55  
Sea Level Pressure  
Sea Level Pressure 30.00 in    
Wind  
Wind Speed 4 mph (SSE)    
Max Wind Speed 13 mph    
Max Gust Speed 17 mph    
Visibility 7 miles    
Events Rain    
T = Trace of Precipitation, MM = Missing Value Source: NWS Daily Summary

Daily Weather History Graph

Daily Weather History Graph

Search for Another Location

Airport or City:

Trip Planner

Search our weather history database for the weather conditions in past years. The results will help you decide how hot, cold, wet, or windy it might be!

Date:

Astronomy

Jul. 15, 2012 Rise Set
Actual Time 5:30 AM EDT 8:31 PM EDT
Civil Twilight 4:57 AM EDT 9:04 PM EDT
Nautical Twilight 4:13 AM EDT 9:47 PM EDT
Astronomical Twilight 3:22 AM EDT 10:38 PM EDT
Moon 2:25 AM EDT (7/15) 5:45 PM EDT (7/15)
Length of Visible Light 16h 07m
Length of Day
15h 00m
Waning Crescent, 12% of the Moon is Illuminated
Jul 15
Waning Crescent
Jul 19
New
Jul 26
First Quarter
Aug 1
Full
Aug 9
Last Quarter

Hourly Weather History & Observations

Time (EDT) Temp. Heat Index Dew Point Humidity Pressure Visibility Wind Dir Wind Speed Gust Speed Precip Events Conditions
12:51 AM 75.9 °F - 64.9 °F 69% 30.11 in 10.0 mi SSE 5.8 mph - N/A   Mostly Cloudy
1:51 AM 73.9 °F - 64.9 °F 73% 30.11 in 10.0 mi Calm Calm - N/A   Scattered Clouds
2:51 AM 72.0 °F - 64.9 °F 78% 30.09 in 10.0 mi Calm Calm - N/A   Partly Cloudy
3:51 AM 69.1 °F - 64.9 °F 87% 30.09 in 10.0 mi South 3.5 mph - N/A   Partly Cloudy
4:51 AM 71.1 °F - 64.9 °F 81% 30.10 in 10.0 mi South 4.6 mph - N/A   Partly Cloudy
5:51 AM 70.0 °F - 64.9 °F 84% 30.10 in 10.0 mi Calm Calm - N/A   Mostly Cloudy
6:51 AM 72.0 °F - 64.9 °F 78% 30.10 in 10.0 mi South 8.1 mph - N/A   Mostly Cloudy
7:51 AM 73.9 °F - 64.9 °F 73% 30.09 in 10.0 mi South 4.6 mph - N/A   Mostly Cloudy
8:51 AM 75.0 °F - 66.0 °F 73% 30.09 in 10.0 mi SSE 5.8 mph - N/A   Mostly Cloudy
9:51 AM 75.9 °F - 66.9 °F 74% 30.08 in 10.0 mi SSW 5.8 mph - N/A   Overcast
10:51 AM 79.0 °F - 66.9 °F 66% 30.06 in 10.0 mi SSE 5.8 mph - N/A   Overcast
11:51 AM 82.0 °F 84.1 °F 66.0 °F 58% 30.05 in 10.0 mi South 10.4 mph - N/A   Mostly Cloudy
12:51 PM 82.0 °F 84.1 °F 66.0 °F 58% 30.04 in 10.0 mi SSW 10.4 mph - N/A   Overcast
1:51 PM 82.0 °F 84.5 °F 66.9 °F 60% 30.01 in 10.0 mi South 6.9 mph - N/A   Overcast
2:51 PM 78.1 °F - 70.0 °F 76% 29.99 in 10.0 mi SSE 3.5 mph - 0.00 in Rain Light Rain
3:42 PM 75.2 °F - 71.6 °F 89% 29.97 in 2.5 mi SSE 4.6 mph - 0.06 in Rain Rain
3:46 PM 75.2 °F - 71.6 °F 89% 29.97 in 4.0 mi SE 3.5 mph - 0.10 in Rain Light Rain
3:51 PM 75.9 °F - 72.0 °F 87% 29.96 in 7.0 mi SE 3.5 mph - 0.10 in Rain Light Rain
4:51 PM 75.0 °F - 73.0 °F 94% 29.94 in 3.0 mi NE 3.5 mph - 0.07 in Rain Light Rain
5:33 PM 75.2 °F - 73.4 °F 94% 29.93 in 2.0 mi Calm Calm - 0.08 in Rain Rain
5:37 PM 75.2 °F - 73.4 °F 94% 29.93 in 1.8 mi NE 5.8 mph - 0.14 in Rain Heavy Rain
5:43 PM 75.2 °F - 73.4 °F 94% 29.93 in 0.8 mi NNE 4.6 mph - 0.24 in Rain Heavy Rain
5:51 PM 73.9 °F - 73.9 °F 100% 29.93 in 0.8 mi NE 4.6 mph - 0.52 in Rain Heavy Rain
5:57 PM 73.4 °F - 73.4 °F 100% 29.94 in 1.0 mi North 6.9 mph - 0.16 in Rain Heavy Rain
6:11 PM 73.4 °F - 73.4 °F 100% 29.94 in 1.0 mi NNE 10.4 mph - 0.34 in Rain Light Rain
6:14 PM 73.4 °F - 73.4 °F 100% 29.94 in 1.0 mi NNE 10.4 mph 17.3 mph 0.35 in Rain Light Rain
6:22 PM 73.4 °F - 71.6 °F 94% 29.94 in 3.0 mi Variable 4.6 mph 17.3 mph 0.38 in Rain Light Rain
6:51 PM 75.0 °F - 73.0 °F 94% 29.94 in 6.0 mi SSW 4.6 mph - 0.38 in   Overcast
7:10 PM 75.2 °F - 71.6 °F 89% 29.93 in 7.0 mi South 4.6 mph - N/A   Overcast
7:26 PM 73.4 °F - 71.6 °F 94% 29.93 in 6.0 mi South 6.9 mph - N/A   Mostly Cloudy
7:51 PM 73.9 °F - 72.0 °F 93% 29.92 in 7.0 mi South 6.9 mph - N/A   Overcast
8:51 PM 73.0 °F - 72.0 °F 96% 29.93 in 8.0 mi South 4.6 mph - N/A   Mostly Cloudy
9:51 PM 72.0 °F - 71.1 °F 97% 29.93 in 8.0 mi South 3.5 mph - N/A   Scattered Clouds
10:20 PM 71.6 °F - 71.6 °F 100% 29.93 in 8.0 mi South 4.6 mph - N/A   Scattered Clouds
10:51 PM 72.0 °F - 71.1 °F 97% 29.93 in 7.0 mi Calm Calm - N/A   Scattered Clouds
11:51 PM 72.0 °F - 71.1 °F 97% 29.91 in 6.0 mi Calm Calm - N/A   Mostly Cloudy